GFSMW_prec_radar_150.txt.gz
Reflectivity
-20 -20 -20 -20 -20 -20 -20 -20 -20 -20 -20 -20 -20 -20 -20 -20 -20 -18 -20 -20 -20 -11 -20 -20 -20 -20 -20 -20 31 -20 -20 -20 -20 -20 -11 31 -20 -20 -20 -20 4 -20 -20
-20 -20 -20 -20 -20 -20 -20 -20 -20 -20 -20 -20 -20 -20 -20 -20 -20 -20 -20 -20 -20 10 -6 -19 -20 -19 -2 -6 9 -15 -20 -20 -18 -20 -20 -20 -20 -20 -20 -20 -20 -18 -2
-20 -20 -20 -20 -20 -20 -20 -20 -20 -20 -20 -20 -20 -20 -20 -20 -20 -20 -20 -20 -20 -20 -17 -16 -16 -20 29 -1 -6 6 -20 -20 -20 -20 -20 -4 -12 -20 -20 -20 -20 -20 -20
-20 -20 -20 -20 -20 -20 -20 -20 -20 -20 -20 -20 -20 -20 -20 -20 -20 -20 -20 -20 -20 -20 -16 -20 -17 -12 -19 14 12 5 -4 -16 -20 25 -20 -20 -20 -20 -4 16 -20 -20 -9
-20 -20 -20 -20 -20 -20 -20 -20 -20 -20 -20 -20 -20 -20 -20 -20 -20 -20 -20 -20 -20 -20 -20 -17 -20 -19 -18 -16 15 3 9 -20 17 -3 38 31 -6 -19 21 37 25 13 -20
-20 -20 -20 -20 -20 -20 -20 -20 -20 -20 -20 -20 -20 -20 -20 -20 -20 -20 -20 -0 -20 -20 35 20 4 -20 -5 -19 -17 -20 -15 -3 36 -9 28 28 26 -20 -1 13 18 20 17
-20 -20 -20 -20 -20 -20 -20 -20 -20 -20 -20 -20 -20 -20 -20 -20 -14 -17 -20 -20 -20 -5 12 5 13 -15 15 -13 -18 38 35 31 34 14 31 31 27 0 10 -6 16 23 18
-20 -20 -20 -20 -20 -20 -20 -20 -20 -20 -20 -20 -8 -20 -20 -20 -16 9 -6 -20 5 -20 -14 -15 15 -7 -10 -13 10 24 32 30 26 41 32 32 11 29 -20 7 24 31 25
-20 -20 -20 -20 -20 -20 -20 -20 -20 -20 -11 -20 -20 -20 -20 -19 -0 -4 14 -20 -13 9 26 19 -1 27 -6 -7 -15 24 2 32 42 37 31 32 -18 -20 25 -12 -20 19 18
-20 -20 -20 -20 -20 -20 -20 -20 -20 -20 -20 -20 -7 6 -8 -5 18 17 11 -20 -15 5 14 -16 -16 -1 25 32 20 13 12 16 28 21 26 22 3 -20 -20 10 -10 26 28
-20 -20 -20 -20 -20 -20 -20 -20 -20 -20 -20 -7 4 4 -1 23 5 30 24 3 -2 21 27 23 21 1 27 -5 14 10 25 17 7 -19 20 30 -3 -20 32 24 -20 -10 15
-20 -20 -20 -20 -20 -20 -20 -20 -20 -20 0 2 5 7 22 32 34 -8 1 27 19 32 30 25 5 16 30 30 29 26 23 21 27 31 25 26 27 33 -12 -3 -20 7 -2
-20 -20 -20 -20 -20 -20 -20 -20 -20 -20 -2 4 -1 10 17 29 31 8 7 10 40 30 33 21 23 12 17 16 14 10 9 -6 24 9 -11 1 15 -15 14 7 15 -4 -20
-20 -20 -20 -20 -20 -20 -20 -20 -13 -20 -20 14 9 9 12 25 31 31 24 16 41 39 31 23 15 20 14 -16 2 -11 -16 -20 -20 -20 -20 -19 -14 28 22 0 5 7 20
-20 -20 -20 -20 -20 -20 -20 -20 -17 -1 -12 -2 21 14 3 26 29 36 35 34 35 38 31 20 21 23 -16 -18 -20 -19 -20 -20 -20 -20 -20 -20 6 15 10 15 10 6 19
-20 -20 -20 -20 -20 -20 -20 -20 -17 -9 -15 -2 -9 22 26 3 20 12 23 32 39 32 9 17 19 0 -11 10 -19 -20 -20 -20 -20 -20 -20 -20 4 -4 -10 15 13 5 12
-20 -20 -20 -20 -20 -20 -20 -20 -19 -0 -17 -11 -6 0 15 27 7 13 11 12 19 27 32 34 21 23 9 7 -8 -5 -20 -20 -20 -20 -11 -16 -20 3 -20 -20 -19 -3 9
-20 -20 -20 -20 -20 -20 -20 -20 -20 -20 -20 -20 -5 -20 -6 12 15 17 14 -7 8 11 17 21 25 20 7 7 3 -19 -20 -20 -20 -20 -15 -20 -20 -7 -7 -20 -20 -20 -20
-20 -20 -20 -20 -20 -20 -20 -20 -20 -20 -20 -20 -20 -3 -20 -20 -6 -4 1 -9 7 8 -1 -8 11 6 -16 -19 -7 -14 -20 -20 -20 -11 -20 -20 -20 13 9 -20 -20 -20 -20
-20 -20 -20 -20 -20 -20 -20 -20 -20 -20 -20 -20 -20 -20 -20 -16 -20 -19 -20 -20 -6 2 -19 -16 -8 12 -4 11 -16 -20 -18 -10 -20 -20 -20 17 2 10 -12 -20 -20 -20 -20
-20 -20 -20 -20 -20 -20 -20 -20 -20 -20 -20 -20 -20 -20 -19 -20 -20 -20 -20 -20 -20 -20 -20 -20 -20 -20 -20 3 10 -14 -20 -20 -20 -20 -20 -15 16 1 -20 -20 -19 -12 -16
-20 -20 -20 -20 -20 -20 -20 -20 -20 -20 -20 -20 -20 -20 -14 -13 -20 -20 -20 -20 -20 -17 -20 -20 -20 -20 -20 -5 -15 -20 -20 -20 -18 -2 -18 -20 -20 -14 10 6 2 6 7
-20 -20 -20 -20 -20 -20 -20 -20 -20 -20 -20 -20 -10 -7 -16 -20 -9 -17 0 -4 -0 -11 -10 -16 -15 -20 -20 -20 -20 -20 -20 -19 -20 -7 -18 -20 -20 -15 9 -8 -5 7 -18
-20 -20 -20 -20 -20 -20 -20 -20 -20 -20 -20 -15 -20 -0 -10 -16 -12 -13 1 1 5 -16 -1 2 -14 -14 -20 -14 -20 -20 -20 -20 -20 -20 -20 -20 -9 11 10 4 -20 -20 -20
-20 -20 -20 -20 -20 -20 -20 -20 -20 -20 -16 -20 -20 -5 -12 1 -9 -9 -4 2 5 0 0 1 -1 -0 -20 -20 -3 3 -20 -16 -20 -20 -20 -20 -13 -20 -20 -20 -20 -20 -20
-20 -20 -20 -20 -20 -20 -20 -20 -20 -3 5 -8 -8 3 4 -16 -5 -5 -13 -1 2 2 5 4 6 -20 -3 -4 -2 -4 -20 -20 -20 -6 -3 -15 3 -11 -6 -20 -20 -20 -20

GFSMW_prec_radar_153.txt.gz
Reflectivity
-20 -20 -20 -20 -20 -20 -20 -20 -20 -20 -20 -20 -20 -20 -20 -20 -20 -20 -20 10 22 14 -7 -10 9 0 -18 -20 -20 -17 -20 -18 -20 -20 -20 -20 -20 -20 -20 -20 -20 -20 -20
-20 -20 -20 -20 -20 -20 -20 -20 -20 -20 -20 -20 -20 -20 -20 -20 -20 -20 -20 -20 0 11 -9 -6 23 18 -7 5 10 -20 34 26 30 16 26 17 28 -20 -20 -20 -20 -20 -20
-20 -20 -20 -20 -20 -20 -20 -20 -20 -20 -20 -20 -20 -20 -20 -20 -20 -20 -20 -20 -20 -20 4 -19 -9 15 -15 -16 5 31 34 -16 7 28 -7 15 -20 -20 -20 -20 -20 -20 -20
-20 -20 -20 -20 -20 -20 -20 -20 -20 -20 -20 -20 -20 -20 -20 -20 -20 -20 -20 -20 -20 -20 20 -9 37 2 -20 -4 31 35 23 27 36 33 33 23 -20 -20 21 6 -13 -20 -20
-20 -20 -20 -20 -20 -20 -20 -20 -20 -20 -20 -20 -20 -20 -20 -20 -20 -20 -20 -20 -20 -20 -20 -18 17 -20 36 15 -17 6 32 12 30 33 10 32 27 -8 -19 27 18 28 -3
-20 -20 -20 -20 -20 -20 -20 -20 -20 -20 -20 -20 -20 -20 -20 -20 -20 -20 -20 -20 -20 -20 -20 -15 -8 -20 -3 31 -20 -4 -4 6 25 31 33 35 31 27 16 40 38 18 -20
-20 -20 -20 -20 -20 -20 -20 -20 -20 -20 -20 -20 -20 -20 -20 -20 -20 -20 -20 -20 -20 -20 -20 -9 -9 -7 -20 -7 13 -20 -14 -16 18 8 26 31 30 26 42 31 -15 7 3
-20 -20 -20 -20 -20 -20 -20 -20 -20 -20 -20 -20 -20 -20 -20 -2 -20 -20 -20 -12 1 -5 -20 -18 -14 25 -19 -5 31 -5 24 -17 1 -20 32 30 31 32 23 31 27 -11 -1
-20 -20 -20 -20 -20 -20 -20 -20 -20 -20 -20 -20 -20 -20 -20 -10 4 -19 -20 -6 3 0 3 5 -18 12 -20 -20 26 27 -2 -2 23 -20 26 -10 23 26 36 20 25 -20 -10
-20 -20 -20 -20 -20 -20 -20 -20 -20 -20 -20 -20 -20 -13 3 7 1 6 -14 2 9 4 21 24 7 -2 -20 -20 -20 -20 -18 -3 -11 -13 10 4 11 16 15 9 10 -0 10
-20 -20 -20 -20 -20 -20 -20 -20 -20 -20 -20 -20 -20 -20 3 5 1 6 -2 8 21 10 11 17 -5 -9 19 -12 -15 -20 -20 -20 18 7 -18 -5 -11 -19 -19 -0 14 -18 23
-20 -20 -20 -20 -20 -20 -20 -20 -20 -20 -20 -20 -18 -3 -13 -8 7 5 14 26 27 17 -1 20 32 -15 23 17 15 12 -11 13 30 27 10 7 4 -20 -20 -19 -20 11 20
-20 -20 -20 -20 -20 -20 -20 -20 -20 -20 -20 -20 -17 -20 -20 4 4 13 29 31 35 15 4 25 21 -9 27 35 10 -0 -8 7 -19 -20 -16 -19 5 6 20 27 28 25 30
-20 -20 -20 -20 -20 -20 -20 -20 -20 -20 -20 -14 -20 -20 10 1 6 17 29 28 33 31 31 29 35 19 25 33 29 21 24 16 14 12 12 12 17 4 -5 22 13 -14 -9
-20 -20 -20 -20 -20 -20 -20 -20 -20 -20 -20 -16 -20 -12 -18 19 15 19 26 34 35 29 28 27 36 33 27 40 30 6 16 5 2 -1 -5 -3 12 10 16 9 -15 -10 20
-20 -20 -20 -20 -20 -20 -20 -20 -20 -20 -1 -20 -20 -20 -0 -13 21 31 28 22 29 33 30 23 31 32 25 34 28 26 -5 -18 -13 -20 -19 -20 -11 -8 12 16 11 13 1
-20 -20 -20 -20 -20 -20 -20 -20 -20 -20 -3 -20 -20 -20 -20 -9 6 15 18 28 22 22 30 28 34 26 26 34 27 26 22 18 16 -0 -20 -20 -20 0 -20 -20 -20 -20 -6
-20 -20 -20 -20 -20 -20 -20 -20 -20 -20 -20 -20 -20 -20 -20 -8 3 -12 12 10 15 15 16 12 21 33 19 21 21 29 16 -4 -20 -20 -20 -20 -20 -7 -14 -20 -20 -20 -20
-20 -20 -20 -20 -20 -20 -20 -20 -20 -20 -20 -20 -20 -20 -20 -20 -2 -16 -18 -16 -18 -20 -6 5 12 10 20 23 14 -7 -5 -20 -10 -20 -13 -18 -20 9 -2 -19 -20 -20 -20
-20 -20 -20 -20 -20 -20 -20 -20 -20 -20 -20 -20 -20 -20 3 -7 -12 -20 -13 -20 -20 -20 -10 1 -6 -20 -16 9 20 8 -18 -15 -20 -20 -20 7 -15 -20 -20 -17 -20 -20 -20
-20 -20 -20 -20 -20 -20 -20 -20 -20 -20 -20 -20 -20 -20 9 -7 -1 -20 -20 -18 -3 -20 -20 -20 -20 -20 -8 -9 2 17 16 13 -4 -20 -20 -8 -20 -20 -4 10 -17 -13 0
-20 -20 -20 -20 -20 -20 -20 -20 -20 -20 -20 -20 -20 -20 5 3 5 -20 -20 -20 -8 -20 -20 -20 -20 -20 -17 -15 -13 2 8 1 1 -13 -20 -20 -20 -20 -8 5 11 7 4
-20 -20 -20 -20 -20 -20 -20 -20 -20 -20 -20 -20 -20 -20 -2 -2 -20 -20 -20 -20 1 -20 -20 -2 -20 -20 -20 -20 -16 -20 -0 -19 -20 -19 -17 -20 -20 -20 8 12 14 -11 -20
-20 -20 -20 -20 -20 -20 -20 -20 -20 -20 -20 -20 -20 -20 -20 -20 -20 -20 -20 -20 -2 -13 -20 -18 -20 -20 -20 -20 -20 -20 -20 -20 -20 -5 -20 -20 -20 -16 -4 -8 -12 -20 -20
-20 -20 -20 -20 -20 -20 -20 -20 -20 -20 -2 -20 -20 -20 -15 -20 -20 -20 -20 3 -2 8 6 4 -12 -20 -20 -19 -8 -13 -20 -15 -20 -20 -17 -20 -20 -20 -20 -20 -20 -20 -20
-20 -20 -20 -20 -20 -20 -20 4 -20 -20 10 -20 -20 -11 -19 -20 -20 -13 -20 -20 -20 -15 5 9 -5 -20 -0 2 -1 1 -7 -15 -20 -20 -20 -20 -7 -20 -20 -20 -20 -20 -20

GFSMW_prec_radar_156.txt.gz
Reflectivity
-20 -20 -20 -20 -20 -20 -20 -20 -20 -20 -20 -20 -20 -20 -20 -20 -20 -20 -20 -20 -4 -20 -20 -20 -6 13 8 16 -3 26 30 -5 -11 -18 -10 30 -19 -20 -20 -0 -20 -20 -20
-20 -20 -20 -20 -20 -20 -20 -20 -20 -20 -20 -20 -20 -20 -20 -20 -20 -20 -20 -20 -20 -20 -20 -20 -20 -20 9 5 17 -10 34 26 30 7 31 25 23 20 7 -16 -3 -20 -20
-20 -20 -20 -20 -20 -20 -20 -20 -20 -20 -20 -20 -20 -20 -20 -20 -20 -20 -20 -20 -20 -20 -20 -20 -11 -15 22 10 6 35 33 8 18 -10 0 27 9 30 29 19 27 26 -20
-20 -20 -20 -20 -20 -20 -20 -20 -20 -20 -20 -20 -20 -20 -20 -20 -20 -20 -20 -20 -20 -20 -20 -20 -9 5 20 26 -6 10 30 32 13 27 26 26 30 28 16 27 26 16 26
-20 -20 -20 -20 -20 -20 -20 -20 -20 -20 -20 -20 -20 -20 -20 -20 -20 -20 -20 -20 -20 -20 -20 -5 -20 -6 1 9 -7 -20 26 34 40 45 35 20 41 43 18 38 26 23 24
-20 -20 -20 -20 -20 -20 -20 -20 -20 -20 -20 -20 -20 -20 -20 -20 -19 -16 -20 -20 -20 -20 -20 -20 -20 -20 1 2 9 -16 17 40 31 33 30 34 22 23 26 28 24 25 -5
-20 -20 -20 -20 -20 -20 -20 -20 -20 -20 -20 -20 -20 -20 -20 -20 -10 13 -8 -1 -20 -20 -20 -20 -20 -20 -20 -17 6 -5 34 31 21 -15 3 29 27 28 26 32 43 40 34
-20 -20 -20 -20 -20 -20 -20 -20 -20 -20 -20 -20 -20 -20 -20 -20 -20 -20 7 6 -8 -20 -20 -20 -20 -20 -20 -20 7 -14 -19 15 28 20 -20 -20 2 29 30 25 25 38 37
-20 -20 -20 -20 -20 -20 -20 -20 -20 -20 -20 -20 -20 -20 -20 -7 -2 -20 -20 -8 -7 -1 -13 1 5 1 -18 -20 10 11 -20 -20 0 42 29 -20 -14 25 24 24 25 24 5
-20 -20 -20 -20 -20 -20 -20 -20 -20 -20 -20 -20 -20 -20 -20 -20 -5 -9 2 -20 -2 -2 -8 10 10 10 -20 11 9 -18 -20 -12 -1 10 -11 1 24 1 -20 0 -2 -15 -20
-20 -20 -20 -20 -20 -20 -20 -20 -20 -20 -20 -20 -20 -20 -20 -18 -12 2 4 -18 -1 0 -3 20 22 15 -8 12 -2 22 11 15 0 -20 -17 -19 -10 6 2 4 -12 -10 -5
-20 -20 -20 -20 -20 -20 -20 -20 -20 -20 -20 -20 -20 -20 -20 -19 -20 -7 1 6 4 7 22 20 29 20 19 -4 20 -0 24 18 -12 -16 -20 -20 -20 18 -19 -20 6 6 -18
-20 -20 -20 -20 -20 -20 -20 -20 -20 -20 -20 -20 -20 -20 -20 -20 -20 1 5 6 20 28 27 23 29 21 20 32 26 16 16 23 -11 -10 -19 3 -8 9 5 11 19 18 17
-20 -20 -20 -20 -20 -20 -20 -20 -20 -20 -20 -20 -20 -20 -20 -13 -20 -3 9 14 24 20 26 22 26 23 19 38 26 11 21 23 29 15 7 -20 -8 5 9 9 -4 -18 -18
-20 -20 -20 -20 -20 -20 -20 -20 -20 -20 -20 -20 -20 -20 -20 -20 -20 1 3 20 22 24 30 26 12 10 19 33 34 35 32 29 17 18 -3 6 16 22 -9 -20 -20 -20 -20
-20 -20 -20 -20 -20 -20 -20 -20 -20 -20 -20 -20 -20 -20 -20 -20 -20 -4 -3 -2 15 28 33 30 23 9 27 36 38 32 36 33 26 33 23 18 15 5 -16 -4 -5 -14 -8
-20 -20 -20 -20 -20 -20 -20 -20 -20 -20 -20 -20 -20 -20 -20 -20 -18 -13 -11 -16 -10 -15 6 22 27 24 19 13 23 16 35 28 33 38 36 7 -9 -19 -20 -19 -6 -7 -3
-20 -20 -20 -20 -20 -20 -20 -20 -20 -20 -20 -20 -20 -20 -20 -20 -20 -20 -15 -11 -20 -13 7 14 15 9 12 9 3 21 18 29 30 21 32 13 0 -12 -20 -20 -20 -20 -20
-20 -20 -20 -20 -20 -20 -20 -20 -20 -20 -20 -20 -20 -20 -20 -20 -6 -20 -20 -8 2 -19 -8 -19 -2 -1 3 8 8 7 24 21 24 31 10 -4 -14 -20 -20 -20 -20 -20 -20
-20 -20 -20 -20 -20 -20 -20 -20 -20 -20 -20 -20 -20 -20 -7 -20 1 -20 -19 -20 -5 -20 -20 -19 -14 4 -6 -7 -2 1 8 5 11 9 28 25 5 -19 7 -20 -20 -20 -20
-20 -20 -20 -20 -20 -20 -20 -20 -20 -20 -20 -20 -20 -20 -20 -9 -1 -20 -20 -20 -2 -20 -20 -7 -20 -5 -5 7 3 5 -5 15 6 17 4 -19 -19 -11 4 6 -18 -9 -6
-20 -20 -20 -20 -20 -20 -20 -20 -20 -20 -20 -20 -20 -20 -20 -14 -20 -20 -20 -20 -13 -14 -20 -1 -20 -17 -20 -20 -2 5 3 0 13 6 -1 -14 -20 -20 -1 -2 5 8 5
-20 -20 -20 -20 -20 -20 -20 -20 -20 -20 -20 -20 -20 -20 -20 -20 -20 -20 -20 -8 0 -20 -2 2 -20 -20 -20 -20 5 -1 -2 1 0 -9 10 -3 -12 -20 -20 -20 -20 -20 -20
-20 -20 -20 -20 -20 -20 -20 -20 -20 -20 -20 -20 -20 -20 -20 -20 -20 -20 -20 -11 -20 -6 -7 -20 -20 -20 -20 -20 -20 -20 -18 -12 -4 -10 -18 -10 -11 -20 -20 -20 -20 -20 -20
-20 -20 -20 -20 -20 -20 -20 -20 -20 -20 -9 -20 -20 -20 -20 -20 -20 -20 -20 -20 -20 4 3 -19 -20 -19 -19 -15 -3 -12 -20 -16 -20 -20 -20 -20 -15 -20 -20 -20 -20 -20 -20
-20 -20 -20 -20 -20 -20 -19 -20 -20 -20 -20 -20 -20 -20 -20 -20 -20 -20 -20 -20 -20 -3 4 -20 -20 -17 1 -0 -1 -14 -19 -6 -20 -20 -20 -20 -20 -20 -20 -20 -20 -20 -20

GFSMW_prec_radar_159.txt.gz
Reflectivity
-20 -20 -20 -20 -20 -20 -20 -20 -20 -20 -20 -20 -20 -20 -20 -20 -20 -20 -20 -20 -20 -20 -20 -20 -20 14 19 14 17 28 7 -17 7 30 22 -7 0 5 -12 -20 -20 -20 -20
-20 -20 -20 -20 -20 -20 -20 -20 -20 -20 -20 -20 -20 -20 -20 -20 -20 -20 -20 -20 -20 -20 -20 -20 -13 -11 14 16 14 23 27 25 31 11 29 6 16 23 23 -5 -14 -4 -20
-20 -20 -20 -20 -20 -20 -20 -20 -20 -20 -20 -20 -20 -20 -20 -20 -20 -20 -20 -20 -20 -20 -20 -20 -20 -8 10 -8 9 -2 -12 25 13 28 28 30 6 -18 26 16 28 33 31
-20 -20 -20 -20 -20 -20 -20 -20 -20 -20 -20 -20 -20 -20 -20 -20 -20 -20 -20 -20 -20 -20 -20 -20 3 1 -20 -14 -18 -5 -13 13 14 28 28 29 30 24 20 12 26 36 29
-20 -20 -20 -20 -20 -20 -20 -20 -20 -20 -20 -20 -20 -20 -20 -20 -20 -20 -20 -20 -20 -20 -20 -20 -11 1 6 -19 0 6 -12 5 20 10 41 28 28 40 32 17 21 22 35
-20 -20 -20 -20 -20 -20 -20 -20 -20 -20 -20 -20 -20 -20 -20 -20 -20 -20 -20 -20 -20 -20 -20 -9 -5 -20 -19 -20 -2 -5 1 -1 5 20 27 26 37 37 44 39 20 22 31
-20 -20 -20 -20 -20 -20 -20 -20 -20 -20 -20 -20 -20 -20 -20 -20 -20 2 -20 -9 -20 -4 0 -10 3 -20 -20 -20 -20 -7 14 -5 5 -2 25 4 35 39 26 40 42 19 8
-20 -20 -20 -20 -20 -20 -20 -20 -20 -20 -20 -20 -20 -20 -20 -20 -20 -20 -20 -6 -20 3 11 5 -9 -20 -20 -20 -6 -19 -16 -10 -2 8 23 4 -16 41 29 34 37 42 42
-20 -20 -20 -20 -20 -20 -20 -20 -20 -20 -20 -20 -20 -20 -20 -20 -20 -20 -18 -3 -6 -8 7 9 -18 -14 1 -2 -20 -20 -20 15 6 9 -0 26 -20 13 31 23 35 27 24
-20 -20 -20 -20 -20 -20 -20 -20 -20 -20 -20 -20 -20 -20 -20 -20 -20 -20 -5 -20 -12 -8 -6 5 -2 5 18 -6 2 -19 -20 -20 8 12 4 23 27 -20 26 12 28 24 20
-20 -20 -20 -20 -20 -20 -20 -20 -20 -20 -20 -20 -20 -20 -20 -20 -20 -18 -19 -1 -3 -15 -7 5 10 12 5 -19 -1 -4 -20 -20 -18 5 9 16 25 12 -20 -7 -14 7 20
-20 -20 -20 -20 -20 -20 -20 -20 -20 -20 -20 -20 -20 -20 -20 -20 -20 -20 -2 -3 8 11 9 11 10 15 3 -2 17 14 -20 -20 -6 -16 20 6 24 -17 -7 2 -18 -13 0
-20 -20 -20 -20 -20 -20 -20 -20 -20 -20 -20 -20 -20 -20 -20 -20 -20 -20 7 -9 8 9 9 14 15 16 19 22 20 16 1 14 27 10 26 6 6 -12 21 9 9 6 -10
-20 -20 -20 -20 -20 -20 -20 -20 -20 -20 -20 -20 -20 -20 -20 -20 -20 -11 -20 -10 3 4 17 21 25 25 27 28 21 30 36 36 26 22 29 18 22 20 -12 15 14 14 12
-20 -20 -20 -20 -20 -20 -20 -20 -20 -20 -20 -20 -20 -20 -20 -20 -20 -20 -20 -16 -3 -15 -3 16 27 27 30 24 11 10 27 29 37 33 30 33 28 19 23 10 22 -2 -10
-20 -20 -20 -20 -20 -20 -20 -20 -20 -20 -20 -20 -20 -20 -20 -20 -20 -20 -20 -20 -1 -2 -20 1 6 16 14 15 10 7 14 18 18 36 36 33 28 27 27 28 22 24 -6
-20 -20 -20 -20 -20 -20 -20 -20 -20 -20 -20 -20 -20 -20 -20 -9 -20 -20 -20 -20 0 -20 -20 -3 3 1 9 10 12 12 11 18 21 20 16 19 31 32 27 24 26 6 14
-20 -20 -20 -20 -20 -20 -20 -20 -20 -20 -20 -20 -20 -20 -20 4 -20 -13 -20 -20 -10 -16 -20 -11 -3 5 -2 2 18 7 12 18 17 27 30 27 24 21 21 21 24 -6 -20
-20 -20 -20 -20 -20 -20 -20 -20 -20 -20 -20 -20 -20 -20 -20 -17 -15 -20 -20 -20 -20 -14 -20 -20 -20 -6 3 9 7 14 3 14 7 12 27 26 28 25 18 6 -17 -20 -20
-20 -20 -20 -20 -20 -20 -20 -20 -20 -20 -20 -20 -20 -20 -20 -20 -9 -20 -20 -20 -20 -1 -20 1 -20 -20 -20 -0 5 1 1 0 -5 15 9 26 28 30 30 24 9 -20 -20
-20 -20 -20 -20 -20 -20 -20 -20 -20 -20 -20 -20 -20 -20 -20 -20 -20 -20 -20 -20 -20 -20 -20 5 -20 -20 -20 -20 10 7 3 3 -1 -0 -3 18 20 31 27 27 8 -2 -14
-20 -20 -20 -20 -20 -20 -20 -20 -20 -20 -20 -20 -20 -20 -20 -20 -16 -20 -20 -20 -20 -20 -20 2 -20 -20 -20 -14 4 2 2 2 -12 -17 0 -4 20 22 13 15 16 -14 -20
-20 -20 -20 -20 -20 -20 -20 -20 -20 -20 -20 -20 -20 -20 -20 -20 -20 -20 -20 -20 -20 -20 -0 -18 -20 -20 -20 -18 4 -3 1 4 -20 -16 -6 -17 8 5 8 13 1 11 -15
-20 -20 -20 -20 -20 -20 -20 -20 -20 -20 -20 -20 -20 -20 -20 -20 -20 -20 -20 -20 -20 -20 -17 -20 -20 -20 -20 -20 -20 -20 -20 -9 -20 -20 -19 -20 -20 -14 7 11 13 -14 -20
-20 -20 -20 -20 -20 -20 -20 -20 -20 -20 -20 -20 -20 -20 -20 -20 -20 -20 -20 -20 -20 5 1 -19 -20 -18 -20 -17 0 -10 -12 -16 -20 -20 -20 -20 -20 -20 -20 9 17 7 -2
-20 -20 -20 -20 -20 -20 -20 -20 -20 -20 -20 -20 -20 -20 -20 -20 -20 -20 -20 -20 -20 -3 0 -7 -3 -20 1 -0 1 -12 -19 -3 -20 -20 -20 -20 -20 -20 -20 -20 -20 -20 -20

GFSMW_prec_radar_162.txt.gz
Reflectivity
-20 -20 -20 -20 -20 -20 -20 -20 -20 -20 -20 -20 -20 -20 -20 -20 -20 -20 -20 -20 -20 -20 -20 -20 -20 -20 -20 -20 -20 6 9 27 17 28 10 -15 4 -20 -13 -20 -20 -20 -20
-20 -20 -20 -20 -20 -20 -20 -20 -20 -20 -20 -20 -20 -20 -20 -20 -20 -20 -20 -20 -20 -20 -20 -20 -20 -20 -20 -20 -10 -18 -1 11 34 32 29 17 -6 10 -12 -20 -11 7 -18
-20 -20 -20 -20 -20 -20 -20 -20 -20 -20 -20 -20 -20 -20 -20 -20 -20 -20 -20 -20 -20 -20 -20 -20 -20 -20 -17 -0 -5 -20 -6 -5 -16 3 34 31 40 40 -4 -20 -20 -14 4
-20 -20 -20 -20 -20 -20 -20 -20 -20 -20 -20 -20 -20 -20 -20 -20 -20 -20 -20 -20 -20 -20 -20 -20 -20 -17 9 11 9 -4 -15 2 -1 -15 1 14 25 34 38 17 2 6 -15
-20 -20 -20 -20 -20 -20 -20 -20 -20 -20 -20 -20 -20 -20 -20 -20 -20 -20 -20 -20 -20 -20 -20 -20 -20 -19 2 6 -3 15 10 15 14 7 7 -1 21 23 24 35 19 23 24
-20 -20 -20 -20 -20 -20 -20 -20 -20 -20 -20 -20 -20 -20 -20 -20 -20 -20 -20 -20 -20 -20 -20 -20 -20 -20 -20 1 3 9 10 7 15 17 17 10 9 11 17 11 46 36 12
-20 -20 -20 -20 -20 -20 -20 -20 -20 -20 -20 -20 -20 -20 -20 -20 -20 -20 -20 -20 -20 -20 -20 -19 -19 -6 5 17 7 12 21 8 7 -11 -18 10 4 13 11 23 26 39 43
-20 -20 -20 -20 -20 -20 -20 -20 -20 -20 -20 -20 -20 -20 -20 -20 -20 -20 -20 -20 -20 -9 -17 -6 9 12 1 -9 15 23 4 -20 -17 6 -14 17 6 11 19 16 50 46 19
-20 -20 -20 -20 -20 -20 -20 -20 -20 -20 -20 -20 -20 -20 -20 -20 -20 -20 -20 -20 0 1 -20 -18 -0 17 8 17 -6 -20 -20 -11 6 6 -20 -8 13 15 17 22 24 15 -1
-20 -20 -20 -20 -20 -20 -20 -20 -20 -20 -20 -20 -20 -20 -20 -20 -20 -20 -20 -20 -20 -20 1 -10 -1 7 16 -4 -16 -20 -20 -13 -7 -7 -19 -14 14 19 14 22 18 21 -20
-20 -20 -20 -20 -20 -20 -20 -20 -20 -20 -20 -20 -20 -20 -20 -20 -20 -20 -20 -5 -20 -20 1 7 11 9 16 -20 -20 -20 -20 -15 5 3 -13 4 -6 20 19 16 13 -19 -20
-20 -20 -20 -20 -20 -20 -20 -20 -20 -20 -20 -20 -20 -20 -20 -20 -20 -20 -20 -20 -20 -20 4 4 11 15 10 -1 5 -16 -19 5 7 9 2 -1 2 4 13 14 12 23 8
-20 -20 -20 -20 -20 -20 -20 -20 -20 -20 -20 -20 -20 -20 -20 -20 -20 -20 -20 -20 -20 -20 -20 -1 9 3 -4 9 -10 -18 -16 7 15 22 12 16 -5 23 30 21 -11 -20 -20
-20 -20 -20 -20 -20 -20 -20 -20 -20 -20 -20 -20 -20 -20 -20 -20 -20 -20 -20 -20 -20 -13 -20 -20 5 -8 -4 7 -2 7 -20 4 6 19 28 29 9 36 27 24 17 9 -3
-20 -20 -20 -20 -20 -20 -20 -20 -20 -20 -20 -20 -20 -20 -20 -20 -20 -20 -20 -20 -20 2 -20 -20 -20 -20 -20 -6 -2 7 -11 4 1 22 26 41 27 39 36 30 21 17 4
-20 -20 -20 -20 -20 -20 -20 -20 -20 -20 -20 -20 -20 -20 -20 -20 -20 -20 -20 -20 -20 -14 -20 -20 2 -20 4 -2 3 8 9 1 15 16 23 26 34 30 40 25 22 30 15
-20 -20 -20 -20 -20 -20 -20 -20 -20 -20 -20 -20 -20 -20 -20 -20 -20 -18 -20 -20 -20 -20 -20 -20 -3 -20 0 -2 3 9 -15 18 16 18 21 21 30 23 31 27 26 37 12
-20 -20 -20 -20 -20 -20 -20 -20 -20 -20 -20 -20 -20 -20 -20 -20 -20 -20 -20 -20 -20 -20 0 -20 -10 -20 -20 -2 5 9 -20 -1 16 21 19 19 18 25 28 21 11 19 15
-20 -20 -20 -20 -20 -20 -20 -20 -20 -20 -20 -20 -20 -20 -20 -20 -20 -20 -20 -20 -20 -20 -20 -20 -20 -20 -20 -1 8 1 -1 -9 -13 11 18 16 20 24 36 28 19 33 32
-20 -20 -20 -20 -20 -20 -20 -20 -20 -20 -20 -20 -20 -20 -20 -20 -20 -20 -20 -20 -20 -1 -20 7 -20 -20 -20 -13 4 1 -0 2 -2 0 5 16 10 23 22 25 27 35 28
-20 -20 -20 -20 -20 -20 -20 -20 -20 -20 -20 -20 -20 -20 -20 -20 -20 -20 -20 -20 -20 -18 -20 -7 -20 -20 -19 -15 8 2 -0 3 -15 -1 5 -12 6 14 11 10 12 8 14
-20 -20 -20 -20 -20 -20 -20 -20 -20 -20 -20 -20 -20 -20 -20 -20 -20 -20 -20 -20 -20 -20 -12 -20 -20 -20 -20 2 -2 2 -2 1 -9 -9 1 0 -3 11 18 16 24 24 15
-20 -20 -20 -20 -20 -20 -20 -20 -20 -20 -20 -20 -20 -20 -20 -20 -20 -20 -20 -20 -20 -20 -4 -20 -20 -20 -20 -20 6 2 -3 -4 -20 -18 -20 -20 -20 0 13 14 16 25 20
-20 -20 -20 -20 -20 -20 -20 -20 -20 -20 -20 -20 -20 -20 -20 -20 -20 -20 -20 -20 -20 -20 0 -20 -20 -20 -20 -20 -20 -18 -20 -20 -20 -20 -20 -20 -20 -20 -20 -20 -3 12 20
-20 -20 -20 -20 -20 -20 -20 -20 -20 -20 -20 -20 -20 -20 -20 -20 -20 -20 -20 -20 -20 3 3 -20 -20 -18 -16 -3 9 -10 -13 -9 -20 -20 -20 -20 -20 -20 -20 -20 -20 -20 -1
-20 -20 -20 -20 -20 -20 -20 -20 -20 -20 -20 -20 -20 -20 -20 -20 -20 -20 -20 -20 -20 -20 0 0 -8 -17 -1 0 2 1 -4 -2 -20 -20 -20 -20 -20 -20 -20 -20 -20 -20 -19

GFSMW_prec_radar_165.txt.gz
Reflectivity
-20 -20 -20 -20 -20 -20 -20 -20 -20 -20 -20 -20 -20 -20 -20 -20 -20 -20 -20 -20 -20 -20 -20 -20 -20 -20 -20 -20 -20 -20 -20 -12 -10 1 2 -12 31 25 8 -8 -20 6 -5
-20 -20 -20 -20 -20 -20 -20 -20 -20 -20 -20 -20 -20 -20 -20 -20 -20 -20 -20 -20 -20 -20 -20 -20 -20 -20 -15 -20 -19 -14 2 -20 -9 10 7 -12 -20 10 41 13 7 -14 24
-20 -20 -20 -20 -20 -20 -20 -20 -20 -20 -20 -20 -20 -20 -20 -20 -20 -20 -20 -20 -20 -20 -20 -9 -20 -19 0 -0 -10 -15 2 -2 -5 3 10 10 12 16 20 38 30 2 6
-20 -20 -20 -20 -20 -20 -20 -20 -20 -20 -20 -20 -20 -20 -20 -20 -20 -20 -20 -20 -20 -20 -20 -20 -20 -20 -3 0 -8 3 9 9 -11 -2 4 11 8 3 -10 14 35 33 21
-20 -20 -20 -20 -20 -20 -20 -20 -20 -20 -20 -20 -20 -20 -20 -20 -20 -20 -20 -20 -20 -20 -20 -20 -20 -20 -19 -13 -8 -16 1 12 14 14 11 10 15 5 11 6 22 24 4
-20 -20 -20 -20 -20 -20 -20 -20 -20 -20 -20 -20 -20 -20 -20 -20 -20 -20 -20 -20 -20 -20 -20 -20 -20 -20 -20 1 -1 -6 6 14 9 7 11 8 15 21 13 8 6 23 22
-20 -20 -20 -20 -20 -20 -20 -20 -20 -20 -20 -20 -20 -20 -20 -20 -20 -20 -20 -20 -20 -20 -20 -20 -20 -20 1 -1 4 14 4 -12 2 7 10 8 10 11 15 15 15 -3 4
-20 -20 -20 -20 -20 -20 -20 -20 -20 -20 -20 -20 -20 -20 -20 -20 -20 -20 -18 -20 -14 -11 -20 -20 2 -20 -0 -7 1 -19 -1 5 7 2 6 6 -13 10 10 17 16 11 15
-20 -20 -20 -20 -20 -20 -20 -20 -20 -20 -20 -20 -20 -20 -20 -20 -20 -20 -20 -9 -20 -20 -18 -20 -20 -7 -11 12 -19 -3 -18 -10 3 -13 5 9 9 1 1 13 18 15 15
-20 -20 -20 -20 -20 -20 -20 -20 -20 -20 -20 -20 -20 -20 -20 -20 -20 -20 -20 -20 -20 -20 -14 -20 -17 -16 -8 5 -11 -13 -1 -1 -9 -2 7 5 5 7 9 -7 14 13 14
-20 -20 -20 -20 -20 -20 -20 -20 -20 -20 -20 -20 -20 -20 -20 -20 -20 -20 -20 -20 -20 -8 -9 -20 -19 -20 -6 -2 2 0 -2 -5 -1 1 5 -1 0 -6 -20 -20 7 23 11
-20 -20 -20 -20 -20 -20 -20 -20 -20 -20 -20 -20 -20 -20 -20 -20 -20 -20 -20 -20 -20 -19 -2 -20 -20 -20 -20 -9 -1 5 -1 0 -12 -1 4 4 7 4 -20 -20 -20 21 20
-20 -20 -20 -20 -20 -20 -20 -20 -20 -20 -20 -20 -20 -20 -20 -20 -20 -19 -20 -20 -20 -5 -20 -20 -9 -2 -20 -20 -4 0 2 4 1 4 3 3 -10 7 -20 -11 -20 -20 17
-20 -20 -20 -20 -20 -20 -20 -20 -20 -20 -20 -20 -20 -20 -20 -20 -14 -14 -4 -20 -20 -15 -4 -20 -3 -12 -20 -2 2 6 8 7 -2 11 8 4 5 21 1 -3 1 -15 8
-20 -20 -20 -20 -20 -20 -20 -20 -20 -20 -20 -20 -20 -20 -20 -20 -20 -20 -8 -20 -20 -20 -5 -20 -4 -3 -4 -2 -1 7 9 3 5 5 10 7 21 33 22 18 16 17 31
-20 -20 -20 -20 -20 -20 -20 -20 -20 -20 -20 -20 -20 -20 -20 -20 -20 -20 -20 -20 -20 -20 -3 0 -5 -16 -11 -4 2 3 11 7 3 5 3 9 17 23 37 29 35 26 34
-20 -20 -20 -20 -20 -20 -20 -20 -20 -20 -20 -20 -20 -20 -20 -20 -20 -20 -20 -20 -20 -20 -7 -1 -1 -20 -20 -2 4 -8 6 7 7 5 9 8 11 21 25 24 38 39 38
-20 -20 -20 -20 -20 -20 -20 -20 -20 -20 -20 -20 -20 -20 -20 -20 -20 -20 -20 -20 -20 -20 -20 -4 -9 -20 -20 0 9 4 -9 -3 3 0 4 12 11 11 19 24 27 25 37
-20 -20 -20 -20 -20 -20 -20 -20 -20 -20 -20 -20 -20 -20 -20 -20 -20 -11 -20 -20 -20 -20 -20 -6 -20 -20 -20 -1 7 -13 -20 -8 -16 -20 1 4 6 12 23 22 22 27 29
-20 -20 -20 -20 -20 -20 -20 -20 -20 -20 -20 -20 -20 -20 -20 -20 -7 -6 -20 -20 -20 -20 -20 -1 -20 -20 -20 -3 6 -1 -16 -2 -2 -20 -19 -1 0 2 19 25 20 29 25
-20 -20 -20 -20 -20 -20 -20 -20 -20 -20 -20 -20 -20 -20 -20 -20 -6 -15 -20 -7 -20 -20 -14 -3 -20 -20 -2 -3 -3 -6 -0 6 -18 -10 2 -0 1 2 4 19 20 19 15
-20 -20 -20 -20 -20 -20 -20 -20 -20 -20 -20 -20 -20 -20 -20 -20 -7 -20 -20 -18 -2 -1 -1 -1 -20 -20 -2 -1 4 1 2 -0 -8 -12 -2 -2 -11 -20 3 2 18 12 9
-20 -20 -20 -20 -20 -20 -20 -20 -20 -20 -20 -20 -20 -20 -20 -20 -20 -20 -3 -2 1 3 2 2 2 -1 -1 5 2 -4 -2 -1 -14 -20 -8 -20 -20 -20 -9 2 2 16 13
-20 -20 -20 -20 -20 -20 -20 -20 -20 -20 -20 -20 -20 -20 -20 -20 -20 -20 -20 2 9 8 7 5 8 4 1 7 12 7 4 0 -20 -20 -20 -20 -20 -20 -20 -15 -8 -4 4
-20 -20 -20 -20 -20 -20 -20 -20 -20 -20 -20 -20 -20 -20 -20 -20 -20 -20 1 1 8 12 11 9 8 10 8 13 13 8 5 6 -20 -20 -20 -20 -20 -20 -20 -20 -15 2 6
-20 -20 -20 -20 -20 -20 -20 -20 -20 -20 -20 -20 -20 -20 -20 -20 -20 -7 -20 -20 -20 -15 -0 -3 3 5 4 5 4 2 -1 -2 -20 -20 -20 -20 -20 -20 -20 -20 -20 -20 -2

GFSMW_prec_radar_171.txt.gz
Reflectivity
-20 -20 -20 -20 -20 -20 -20 -20 -20 -20 -20 -20 -20 -20 -20 -20 -20 -20 -20 -20 -20 -20 -20 -20 -20 -20 -20 -20 -20 -20 -20 -20 -20 -20 -20 -20 -20 -20 -20 -20 -20 -20 -20
-20 -20 -20 -20 -20 -20 -20 -20 -20 -20 -20 -20 -20 -20 -20 -20 -20 -20 -20 -20 -20 -20 -20 -20 -20 -20 -20 -20 -20 -20 -20 -20 -20 -20 -12 -20 -20 -20 -20 -20 -20 -20 -20
-20 -20 -20 -20 -20 -20 -20 -20 -20 -20 -20 -20 -20 -20 -20 -20 -20 -20 -20 -20 -20 -20 -20 -20 -20 -20 -20 -20 -20 -20 -18 -15 -12 -20 8 -3 -10 -8 -20 -20 -20 -20 -20
-20 -20 -20 -20 -20 -20 -20 -20 -20 -20 -20 -20 -20 -20 -20 -20 -20 -20 -20 -20 -20 -20 -20 -20 -20 -20 -20 -20 -20 -20 -20 -18 2 -3 4 -0 12 11 -6 -20 -20 -20 -20
-20 -20 -20 -20 -20 -20 -20 -20 -20 -20 -20 -20 -20 -20 -20 -20 -20 -20 -20 -20 -20 -20 -20 -20 -20 -20 -1 -20 -20 -20 -17 11 9 6 6 -4 11 8 13 8 -15 -20 -20
-20 -20 -20 -20 -20 -20 -20 -20 -20 -20 -20 -20 -20 -20 -20 -20 -20 -20 -20 -20 -20 -20 -20 -20 -20 -1 -20 -20 -20 -18 6 -2 -8 -4 0 2 9 10 11 12 2 5 -16
-20 -20 -20 -20 -20 -20 -20 -20 -20 -20 -20 -20 -20 -20 -20 -20 -20 -20 -20 -20 -20 -20 -20 -20 -20 -20 -20 -20 -2 -20 -11 -20 -20 -7 -20 -20 -1 2 10 10 1 7 6
-20 -20 -20 -20 -20 -20 -20 -20 -20 -20 -20 -20 -20 -20 -20 -20 -20 -20 -20 -20 -20 -20 -20 -20 -20 -20 -20 -20 -20 -20 -20 -20 -2 -2 2 -20 -18 7 10 12 14 2 6
-20 -20 -20 -20 -20 -20 -20 -20 -20 -20 -20 -20 -20 -20 -20 -20 -20 -20 -20 -20 -20 -20 -20 -20 -20 -20 -20 -20 -20 -20 -20 -20 -3 -17 -2 -7 -2 7 7 10 13 11 -4
-20 -20 -20 -20 -20 -20 -20 -20 -20 -20 -20 -20 -20 -20 -20 -20 -20 -20 -20 -20 -20 -20 -20 -20 -15 -11 -20 -20 -10 -20 -20 -17 -10 -12 -14 -10 -4 1 9 10 13 10 15
-20 -20 -20 -20 -20 -20 -20 -20 -20 -20 -20 -20 -20 -20 -20 -20 -20 -20 -20 -20 -20 -20 -20 -20 -16 -17 -20 -11 -13 -20 -7 -20 -20 -20 -11 4 1 6 11 7 5 12 13
-20 -20 -20 -20 -20 -20 -20 -20 -20 -20 -20 -20 -20 -20 -20 -20 -20 -20 -20 -20 -20 -20 -20 -20 -20 -20 -20 -9 -12 -3 -20 -20 -13 3 5 -19 -0 7 8 10 9 11 8
-20 -20 -20 -20 -20 -20 -20 -20 -20 -20 -20 -20 -20 -20 -20 -20 -20 -20 -20 -20 -20 -20 -20 -20 -20 -3 -10 -1 2 -20 -20 4 5 6 4 -2 -13 7 11 12 11 8 7
-20 -20 -20 -20 -20 -20 -20 -20 -20 -20 -20 -20 -20 -20 -20 -20 -20 -20 -20 -20 -20 -20 -20 -20 -20 -18 -12 -1 -20 -20 0 0 -2 9 7 8 7 -5 13 10 7 7 12
-20 -20 -20 -20 -20 -20 -20 -20 -20 -20 -20 -20 -20 -20 -20 -20 -20 -20 -20 -20 -20 -20 -20 -20 -6 -20 -3 -10 -17 -20 -2 3 6 11 1 7 -3 0 10 10 11 8 10
-20 -20 -20 -20 -20 -20 -20 -20 -20 -20 -20 -20 -20 -20 -20 -20 -20 -20 -20 -20 -20 -20 -20 -20 -20 -20 -20 -20 -20 -9 1 -20 9 12 5 4 7 10 3 4 -9 3 11
-20 -20 -20 -20 -20 -20 -20 -20 -20 -20 -20 -20 -20 -20 -20 -20 -20 -20 -20 -20 -20 -20 -20 -20 -20 -20 -12 -20 -20 -20 3 5 10 8 8 9 9 6 8 -6 -3 -20 0
-20 -20 -20 -20 -20 -20 -20 -20 -20 -20 -20 -20 -20 -20 -20 -20 -20 -20 -20 -20 -20 -20 -20 -20 -20 -20 -20 -20 -20 1 -6 -20 -9 5 7 11 7 6 -1 7 5 3 4
-20 -20 -20 -20 -20 -20 -20 -20 -20 -20 -20 -20 -20 -20 -20 -20 -20 -20 -20 -20 -20 -20 -20 -20 -20 -20 -20 -20 -20 4 -2 -0 -7 -20 -16 6 8 -17 -4 7 7 3 -1
-20 -20 -20 -20 -20 -20 -20 -20 -20 -20 -20 -20 -20 -20 -20 -20 -20 -20 -20 -20 -20 -20 -20 -20 -20 -20 -20 -20 -10 2 3 1 2 -18 -18 -8 -7 -3 3 4 11 9 4
-20 -20 -20 -20 -20 -20 -20 -20 -20 -20 -20 -20 -20 -20 -20 -20 -20 -20 -20 -20 -20 -20 -20 -20 -20 -20 -20 -9 4 -0 5 7 10 7 10 -1 1 3 4 4 10 9 3
-20 -20 -20 -20 -20 -20 -20 -20 -20 -20 -20 -20 -20 -20 -20 -20 -20 -20 -20 -20 -20 -20 -20 -20 -20 -20 -19 -15 -1 1 5 -6 7 4 10 2 7 3 5 8 5 3 -15
-20 -20 -20 -20 -20 -20 -20 -20 -20 -20 -20 -20 -20 -20 -20 -20 -20 -20 -20 -20 -6 -9 -2 -1 2 2 -1 -12 -1 2 3 1 4 4 1 -4 8 4 5 4 -0 5 6
-20 -20 -20 -20 -20 -20 -20 -20 -20 -20 -20 -20 -20 -13 -3 -20 -4 -6 -7 -2 7 -0 -1 4 4 -11 0 -15 -6 11 10 -0 6 0 -6 6 7 -16 3 5 6 6 7
-20 -20 -20 -20 -20 -20 -20 -20 -20 -20 -20 -20 -16 -7 1 -0 0 -1 3 0 2 -10 -5 4 4 0 7 8 5 10 11 10 10 -10 10 0 8 8 8 7 5 5 6
-20 -20 -20 -20 -20 -20 -20 -20 -20 -20 -20 -20 -20 -16 -2 0 0 -0 -2 -20 -20 -20 -20 -6 -2 4 4 3 5 6 4 4 5 6 2 11 11 11 10 11 9 8 6

GFSMW_prec_radar_174.txt.gz
Reflectivity
-20 -20 -20 -20 -20 -20 -20 -20 -20 -20 -20 -20 -20 -20 -20 -20 -20 -20 -20 -20 -20 -20 -20 -20 -20 -20 -20 -20 -20 -20 -20 -20 -20 -20 -20 -20 -20 -20 -20 -20 -20 -20 -20
-20 -20 -20 -20 -20 -20 -20 -20 -20 -20 -20 -20 -20 -20 -20 -20 -20 -20 -20 -20 -20 -20 -20 -20 -20 -20 -20 -20 -20 -20 -20 -20 -20 -12 -20 -20 -20 -20 -20 -20 -20 -20 -20
-20 -20 -20 -20 -20 -20 -20 -20 -20 -20 -20 -20 -20 -20 -20 -20 -20 -20 -20 -20 -20 -20 -20 -20 -20 -20 -20 -20 -20 -20 -20 -9 -15 -13 1 -11 -20 -17 -20 -20 -20 -20 -20
-20 -20 -20 -20 -20 -20 -20 -20 -20 -20 -20 -20 -20 -20 -20 -20 -20 -20 -20 -20 -20 -20 -20 -20 -20 -20 -20 -20 -20 -20 -4 5 -3 -10 -20 6 6 8 -5 -20 -20 -20 -20
-20 -20 -20 -20 -20 -20 -20 -20 -20 -20 -20 -20 -20 -20 -20 -20 -20 -20 -20 -20 -20 -20 -20 -20 -20 -20 -20 -20 -20 -20 -8 5 3 6 2 -4 -19 -19 -5 -20 -20 -20 -20
-20 -20 -20 -20 -20 -20 -20 -20 -20 -20 -20 -20 -20 -20 -20 -20 -20 -20 -20 -20 -20 -20 -20 -20 -20 -20 -20 -20 -20 -20 -14 -8 -1 8 10 3 -2 3 -0 -4 -18 -20 -20
-20 -20 -20 -20 -20 -20 -20 -20 -20 -20 -20 -20 -20 -20 -20 -20 -20 -20 -20 -20 -20 -20 -20 -20 -20 -20 -20 -20 -20 -14 -20 -20 -20 -5 -20 -20 -20 -20 1 10 -4 -20 -20
-20 -20 -20 -20 -20 -20 -20 -20 -20 -20 -20 -20 -20 -20 -20 -20 -20 -20 -20 -20 -20 -20 -20 -20 -20 -20 -20 -20 -20 -20 -15 -14 -20 -20 -20 -10 -5 -20 5 8 13 -5 -20
-20 -20 -20 -20 -20 -20 -20 -20 -20 -20 -20 -20 -20 -20 -20 -20 -20 -20 -20 -20 -20 -20 -20 -20 -20 -20 -20 -20 -20 -16 -20 -20 -18 -14 -3 -19 2 6 -3 -7 8 12 1
-20 -20 -20 -20 -20 -20 -20 -20 -20 -20 -20 -20 -20 -20 -20 -20 -20 -20 -20 -20 -20 -20 -20 -20 -20 -20 -20 -20 -20 -0 -20 -16 -20 -14 -11 -20 3 5 5 7 10 7 9
-20 -20 -20 -20 -20 -20 -20 -20 -20 -20 -20 -20 -20 -20 -20 -20 -20 -20 -20 -20 -20 -20 -20 -20 -20 -20 -9 -20 -12 -0 -20 -20 -19 -0 -20 -20 -8 -20 -3 -20 4 10 11
-20 -20 -20 -20 -20 -20 -20 -20 -20 -20 -20 -20 -20 -20 -20 -20 -20 -20 -20 -20 -20 -20 -20 -20 -20 -20 -20 -20 -6 -13 -20 -20 -20 -8 -20 -18 6 -15 5 7 4 10 9
-20 -20 -20 -20 -20 -20 -20 -20 -20 -20 -20 -20 -20 -20 -20 -20 -20 -20 -20 -20 -20 -20 -20 -20 -20 -11 -7 -18 -17 -20 -20 -20 -20 -20 -6 11 -19 4 -13 -6 11 5 4
-20 -20 -20 -20 -17 -8 -20 -20 -20 -20 -20 -20 -20 -20 -20 -20 -20 -20 -20 -20 -20 -20 -20 -20 -20 -20 -20 -10 -20 -20 -20 -20 -20 -20 -3 10 3 5 7 13 -9 5 0
-20 -20 -20 -20 -20 -15 -20 -20 -20 -20 -20 -20 -20 -20 -20 -20 -20 -20 -20 -20 -20 -20 -20 -20 -20 -20 -20 -20 -20 -20 -20 -20 -20 -20 10 0 4 9 5 7 -13 -19 5
26 -20 -20 -20 -20 -20 -20 -20 -20 -20 -20 -20 -20 -20 -20 -20 -20 -20 -20 -20 -20 -20 -20 -20 -20 -20 -20 -20 -20 -20 -20 -20 -20 6 -15 -20 4 4 5 -20 -10 -5 -4
-17 -20 -20 -20 -20 5 -5 -20 -20 -20 -20 -20 -20 -20 -20 -20 -20 -20 -20 -20 -20 -20 -20 -20 -20 -20 -20 -20 -20 -20 -20 -20 -20 -18 -20 -15 2 9 -19 -20 -20 -20 3
7 14 -20 -20 -20 -17 -20 -20 -20 -20 -20 -20 -20 -20 -20 -20 -20 -20 -20 -20 -20 -20 -20 -20 -20 -20 -20 -20 -20 -20 -20 -20 -20 -20 -20 -20 7 1 1 -15 -20 -20 -20
-7 3 -20 -5 -20 -20 -20 -20 -20 -20 -20 -20 -20 -20 -20 -20 -20 -20 -20 -20 -20 -20 -20 -20 -20 -20 -20 -20 -20 -20 -20 -20 -20 -20 -20 -13 -4 -20 2 1 -6 -19 -20
11 11 1 -20 -20 -20 -20 -20 -20 -20 -20 -20 -20 -20 -20 -20 -20 -20 -20 -20 -20 -20 -20 -20 -20 -20 -20 -20 -19 -1 -19 4 -6 -20 -20 -10 -0 1 9 5 -1 6 -7
-20 -20 -20 -20 -20 -20 -20 -20 -20 -20 -20 -20 -20 -20 -20 -20 -20 -20 -20 -20 -20 -20 -20 -20 -20 -20 -20 -20 -3 -3 -8 3 6 -2 -6 -4 -20 7 7 6 10 1 2
-20 -20 -20 -20 -20 -20 -20 -20 -20 -20 -20 -20 -20 -20 -20 -20 -20 -20 -20 -20 -20 -20 -20 -20 -20 -20 -20 -20 -4 -5 1 3 5 3 6 -20 5 8 2 -9 5 6 -13
-5 -20 -20 -20 -20 -20 -20 -20 -20 -20 -20 -20 -20 -20 -20 -20 -20 -20 -20 -20 -20 -20 -20 -20 -20 -20 -20 -20 -19 -20 2 3 -1 4 -20 5 4 1 -19 -1 2 -20 4
-16 -20 -20 -20 -20 -20 -20 -20 -20 -20 -20 -20 -20 -20 -20 -20 -20 -20 -17 -7 -2 -20 -20 -20 -20 -20 -20 -20 -20 -20 -17 -17 -20 -3 -20 4 4 -20 -17 -18 -2 -3 0
-20 -20 -20 -20 -20 -20 -20 -20 -20 -20 -20 -20 -18 -20 -2 -20 -4 -1 -19 -12 -20 -20 -20 -13 -20 -13 -2 -15 -1 1 -6 -12 -4 -0 -2 -20 -13 -17 -20 -18 -3 -6 -2
-20 -20 -20 -20 -20 -20 -20 -20 -20 -20 -20 -20 -20 -20 -3 -5 -8 -4 3 -20 -20 -20 -20 -20 -10 -11 -11 -2 -0 6 -0 3 2 -19 -7 -5 -4 -1 2 -1 0 -19 -11

GFSMW_prec_radar_177.txt.gz
Reflectivity
-20 -20 -20 -20 -20 -20 -20 -20 -20 -20 -20 -20 -20 -20 -20 -20 -20 -20 -20 -20 -20 -20 -20 -20 -20 -20 -20 -20 -20 -20 -20 -20 -20 -20 -20 -20 -20 -20 -20 -20 -20 -20 -20
-20 -20 -20 -20 -20 -20 -20 -20 -20 -20 -20 -20 -20 -20 -20 -20 -20 -20 -20 -20 -20 -20 -20 -20 -20 -20 -20 -20 -20 -20 -20 -20 -20 -20 -20 -20 -20 -20 -20 -20 -20 -20 -20
-20 -20 -20 -20 -20 -20 -20 -20 -20 -20 -20 -20 -20 -20 -20 -20 -20 -20 -20 -20 -20 -20 -20 -20 -20 -20 -20 -20 -20 -20 -20 -11 -20 -20 -13 -1 -17 -20 -20 -20 -20 -20 -20
-20 -20 -20 -20 -20 -20 -20 -20 -20 -20 -20 -20 -20 -20 -20 -20 -20 -20 -20 -20 -20 -20 -20 -20 -20 -20 -20 -20 -20 -20 -20 -16 -2 -20 -19 -13 -13 8 -20 -20 -20 -20 -20
-20 -20 -20 -20 -20 -20 -20 -20 -20 -20 -20 -20 -20 -20 -20 -20 -20 -20 -20 -20 -20 -20 -20 -20 -20 -20 -20 -20 -20 -20 -20 -20 -8 -3 -10 -20 -20 -20 -17 -20 -20 -20 -20
-20 -20 -20 -20 -20 -20 -20 -20 -20 -20 -20 -20 -20 -20 -20 -20 -20 -20 -20 -20 -20 -20 -20 -20 -20 -20 -20 -20 -20 -20 -20 -20 -20 -20 -20 -17 -14 6 7 4 -19 -20 -20
-20 -20 -20 -20 -20 -17 -19 -20 -20 -20 -20 -20 -20 -20 -20 -20 -20 -20 -20 -20 -20 -20 -20 -20 -20 -20 -20 -20 -20 -20 -9 -20 -16 -20 -20 -20 -5 -8 4 6 -13 -20 -20
-20 -20 -20 -20 -20 -20 -20 -20 -20 -20 -20 -20 -20 -20 -20 -20 -20 -20 -20 -20 -20 -20 -20 -20 -20 -20 -20 -20 -20 -20 -8 -20 -20 -20 -20 -4 -7 -20 7 10 12 -20 -20
-20 -20 -20 -20 -20 -20 -20 -20 -20 -20 -20 -20 -20 -20 -20 -20 -20 -20 -20 -20 -20 -20 -20 -20 -20 -20 -20 -20 -20 -20 -20 -20 -20 -20 -20 -13 -2 -3 2 -6 11 13 -14
-20 -20 -20 -20 -20 -20 -20 -20 -20 -20 -20 -20 -20 -20 -20 -20 -20 -20 -20 -20 -20 -20 -20 -20 -20 -20 -20 -20 -20 -16 -20 -20 -20 -20 -20 -20 -20 1 -11 -8 -9 11 12
-20 -20 -20 -20 -20 -20 -20 -20 -20 -20 -20 -20 -20 -20 -20 -20 -20 -20 -20 -20 -20 -20 -20 -20 -20 -20 -20 -20 -20 -20 -20 -20 -20 -20 -20 -20 -20 6 -20 6 -6 -17 5
-20 -20 -20 -20 -20 -20 -20 -20 -20 -20 -20 -20 -20 -20 -20 -20 -20 -20 -20 -20 -20 -20 -20 -20 -20 -20 -20 -20 -20 -20 -20 -20 -20 -20 -20 -20 -18 6 -20 -15 -20 14 -19
-14 -20 -20 -20 -20 -20 -20 -20 -20 -20 -20 -20 -20 -20 -20 -20 -20 -20 -20 -20 -20 -20 -20 -20 -20 -20 -20 -20 -20 -20 -20 -20 -20 -20 -20 -19 13 -6 -20 -9 -18 -20 -1
-20 -20 -20 -20 -20 -20 -20 -20 -20 -20 -20 -20 -20 -20 -20 -20 -20 -20 -20 -20 -20 -20 -20 -20 -20 -20 -20 -20 -20 -20 -20 -20 -20 -20 -20 -19 -18 -20 11 -5 -12 -12 -20
-20 -20 -20 -20 -20 -20 -20 -20 -20 -12 -12 -20 -20 -20 -20 -20 -20 -20 -20 -20 -20 -20 -20 -20 -20 -20 -20 -20 -20 -20 -20 -20 -20 -20 -20 -20 -12 0 2 3 -7 -20 -8
-20 -20 -20 -20 -20 -20 -19 -5 0 -0 6 -20 -20 -20 -20 -20 -20 -20 -20 -20 -20 -20 -20 -20 -20 -20 -20 -20 -20 -20 -20 -20 -20 -20 -20 -20 -20 -20 9 7 4 4 1
8 -10 -20 -20 -20 -18 3 1 13 13 -19 -20 -20 -20 -20 -20 -20 -20 -20 -20 -20 -20 -20 -20 -20 -20 -20 -20 -20 -20 -20 -20 -20 -20 -20 -20 -20 -20 -14 -16 -20 -20 -20
12 -9 -20 -20 -20 -20 -7 15 14 -20 -20 -20 -20 -20 -20 -20 -20 -20 -20 -20 -20 -20 -20 -20 -20 -20 -20 -20 -20 -20 -20 -20 -20 -20 -20 -20 -20 7 -18 -20 -2 -20 -20
6 -13 -7 -20 -20 -14 21 18 11 -20 -20 -20 -20 -20 -20 -20 -20 -20 -20 -20 -20 -20 -20 -20 -20 -20 -20 -20 -20 -20 -20 -20 -20 -20 -20 -20 -20 -20 3 12 -19 -3 -20
-20 -20 -20 -20 14 31 23 -7 -6 -19 -20 -20 -20 -20 -20 -20 -20 -20 -20 -20 -20 -20 -20 -20 -20 -20 -20 -20 -20 -20 -20 -20 -1 -20 -20 -14 -20 1 14 3 -7 -15 -11
-20 -20 -10 21 19 7 -14 -20 -20 -20 -20 -20 -20 -20 -20 -20 -20 -20 -20 -20 -20 -20 -20 -20 -20 -20 -20 -20 -20 -20 -20 -14 0 -20 -19 -9 -1 13 4 2 -20 8 -3
-20 -9 -3 -5 -5 -18 -20 -20 -20 -20 -20 -20 -20 -20 -20 -20 -20 -20 -20 -20 -20 -20 -20 -20 -20 -20 -20 -20 -20 -20 -4 -2 -18 -20 1 -20 9 0 -4 -11 3 3 -20
-5 -20 -20 -14 -3 -20 -20 -20 -20 -20 -20 -20 -20 -20 -20 -20 -20 -20 -20 -20 -20 -20 -20 -20 -20 -20 -20 -20 -20 -20 -5 -7 -20 1 4 3 1 -3 -20 -3 1 -18 -2
-20 -5 18 12 -0 -20 -20 -20 -20 -20 -20 -20 -20 -20 -20 -20 -20 -20 -20 -20 -20 -20 -20 -20 -20 -20 -20 -20 -20 -20 -18 -20 -20 -4 -20 -20 -4 -20 -20 -12 -18 -11 2
-16 -14 7 -1 -3 -20 -20 -20 -20 -20 -20 -20 -20 -20 -20 -20 -20 -20 -20 -20 -20 -20 -20 -20 -20 -20 -20 -20 -5 -5 -4 -3 -16 -20 -20 -20 -20 -20 -18 -16 -5 -20 -0
-18 -6 8 -18 -20 -20 -20 -20 -20 -20 -20 -20 -20 -20 -20 -20 -20 -20 -20 -20 -20 -20 -20 -20 -20 -19 -20 -4 -18 3 3 -4 -10 -20 -20 -20 -20 -20 -4 -20 -20 -20 -17